This demonstration page uses our WeatherBlox Daily Observations layout. Learn more.

Left ArrowRight Arrow

Hourly Observations for April 4, 2017

Temp ( °F °C ) Dew Point ( °F °C ) Humidity (%) Winds ( mph kmh ) Pressure ( in mb ) Visibility ( mi km ) Precip ( " mm )
12:59 am 00:59 Cloudy 69 20.6 60 15.6 73 73 S 13 20 29.74 1007 10 16 0.00 0.00
1:59 am 01:59 Cloudy 68 20 60 15.6 76 76 S 13 20 29.72 1007 10 16 0.00 0.00
2:59 am 02:59 Cloudy 68 20 61 16.1 78 78 SSW 15 24 29.70 1006 10 16 0.00 0.00
3:59 am 03:59 Cloudy 68 20 61 16.1 78 78 SW 12 19 29.69 1005 10 16 0.00 0.00
4:59 am 04:59 Cloudy 68 20 62 16.7 81 81 SSW 9 15 29.67 1005 10 16 0.00 0.00
5:59 am 05:59 Cloudy 68 20 62 16.7 81 81 SW 10 17 29.66 1004 10 16 0.00 0.00
6:59 am 06:59 Mostly Cloudy 68 20 61 16.1 78 78 SW 10 17 29.66 1005 10 16 0.00 0.00
7:59 am 07:59 Mostly Cloudy 69 20.6 61 16.1 76 76 WSW 14 22 29.68 1005 9 14 0.00 0.00
8:08 am 08:08 Mostly Cloudy 70 21.1 61 16.1 73 73 WSW 15 24 29.68 1005 9 14 0.00 0.00
8:15 am 08:15 Mostly Cloudy 69 20.6 61 16.1 76 76 SW 10 17 29.68 1005 9 14 0.00 0.00
8:54 am 08:54 Mostly Cloudy 70 21 61 16 73 73 WSW 12 19 29.68 1005 9 14 0.00 0.00
8:59 am 08:59 Mostly Cloudy 70 21.1 60 15.6 71 71 WSW 14 22 29.67 1005 9 14 0.00 0.00
9:59 am 09:59 Mostly Cloudy 72 22.2 58 14.4 61 61 WSW 16 26 29.67 1005 10 16 0.00 0.00
10:59 am 10:59 Partly Cloudy 74 23.3 57 13.9 56 56 WSW 16 26 29.66 1005 10 16 0.00 0.00
11:59 am 11:59 Partly Cloudy 76 24.4 56 13.3 50 50 W 20 31 29.66 1005 10 16 0.00 0.00
12:59 pm 12:59 Partly Cloudy 79 26.1 54 12.2 42 42 W 16 26 29.66 1005 10 16 0.00 0.00
1:59 pm 13:59 Partly Cloudy 80 26.7 53 11.7 39 39 W 14 22 29.66 1004 10 16 0.00 0.00
2:59 pm 14:59 Partly Cloudy 81 27.2 52 11.1 37 37 WSW 17 28 29.65 1004 10 16 0.00 0.00
3:59 pm 15:59 Mostly Cloudy 82 27.8 51 10.6 34 34 WSW 15 24 29.65 1004 10 16 0.00 0.00
4:59 pm 16:59 Partly Cloudy 81 27.2 50 10 34 34 WSW 16 26 29.67 1005 10 16 0.00 0.00
5:59 pm 17:59 Partly Cloudy 81 27.2 50 10 34 34 W 13 20 29.68 1005 10 16 0.00 0.00
6:59 pm 18:59 Partly Cloudy 79 26.1 51 10.6 38 38 WSW 12 19 29.70 1006 10 16 0.00 0.00
7:59 pm 19:59 Partly Cloudy 76 24.4 51 10.6 42 42 WSW 10 17 29.72 1006 10 16 0.00 0.00
8:59 pm 20:59 Mostly Clear 73 22.8 51 10.6 46 46 SW 6 9 29.75 1008 10 16 0.00 0.00
9:59 pm 21:59 Mostly Clear 72 22.2 51 10.6 48 48 WSW 6 9 29.77 1008 10 16 0.00 0.00
10:59 pm 22:59 Mostly Clear 71 21.7 51 10.6 49 49 WSW 8 13 29.78 1008 10 16 0.00 0.00
11:59 pm 23:59 Clear 70 21.1 51 10.6 51 51 WSW 6 9 29.78 1009 10 16 0.00 0.00

Powered by AerisWeather